Location: Niverville
(49.6028°N, 97.0419°W)
Time: 00:35:46
(UTC-05:00)

Cosmos 1154 Rocket - Visible Passes

Search period start: 23 July 2014 00:00
Search period end: 02 August 2014 00:00
Orbit: 315 x 328 km, 81.2° (Epoch: 22 July)

Date Brightness Start Highest point End Pass type
(mag) Time Alt. Az. Time Alt. Az. Time Alt. Az.
24 Jul 4.6 04:01:42 10° SE 04:03:27 16° E 04:05:13 10° NE visible
25 Jul 3.2 04:17:15 11° SSE 04:19:41 34° E 04:22:12 10° NNE visible
26 Jul 1.7 04:33:44 15° SSW 04:35:54 89° W 04:38:38 10° NNE visible
27 Jul 2.7 04:50:06 14° SW 04:52:09 34° WNW 04:54:40 10° N visible
28 Jul 4.0 03:35:20 15° SE 03:36:35 21° E 03:38:42 10° NE visible
28 Jul 3.8 05:06:34 10° WSW 05:08:23 16° WNW 05:10:13 10° NNW visible
29 Jul 2.5 03:51:29 30° SSE 03:52:29 48° E 03:55:07 10° NNE visible
30 Jul 1.8 04:07:32 37° SW 04:08:24 63° WNW 04:11:05 10° N visible
31 Jul 4.5 02:52:28 13° E 02:52:44 13° E 02:54:01 10° ENE visible
31 Jul 3.1 04:23:28 22° WSW 04:24:18 26° WNW 04:26:39 10° NNW visible
01 Aug 3.5 03:08:18 26° E 03:08:20 26° E 03:10:39 10° NE visible
01 Aug 4.1 04:39:17 12° W 04:40:13 13° WNW 04:41:37 10° NW visible
